Date String (YYYY-MM-DD hh:mm:ss) UTC,Instrument flags,Ambient pressure (hPa),Sample flow (lpm),Bypass flow (lpm),Sample temperature (°C),Ambient temperature (°C),ASC tube jacket temperature (°C),LED temperature (°C),Box temperature (°C),Sample RH (%),Span deviation,Mass concentration (μg/m³),Mass concentration (μg/m³),Mass concentration (μg/m³)
DateTimeUTC,F1_M11,P_M11,Q1_M11,Q2_M11,T1_M11,T2_M11,T3_M11,T4_M11,T5_M11,U1_M11,ZSPAN_M11,X0_M11,X2_M11,X1_M11
2022-02-08 00:00:00,,0829.2,4.98,0.00,28.5,27.9,00.0,37.4,30.3,07.2,0000.0,0016.11,0007.90,0007.08
2022-02-08 00:01:00,,0829.2,5.02,0.00,28.5,27.9,00.0,37.4,30.3,07.2,0000.0,0015.60,0007.80,0006.97
2022-02-08 00:02:00,,0829.2,5.00,0.00,28.5,27.9,00.0,37.4,30.3,07.2,0000.0,0015.81,0007.75,0006.89
2022-02-08 00:03:00,,0829.2,4.99,0.00,28.5,27.9,00.0,37.4,30.3,07.3,0000.0,0015.96,0007.71,0006.80
2022-02-08 00:04:00,,0829.3,5.01,0.00,28.5,27.9,00.0,37.4,30.3,07.2,0000.0,0015.92,0007.62,0006.71
2022-02-08 00:05:00,,0829.2,4.99,0.00,28.5,27.9,00.0,37.4,30.3,07.1,0000.0,0015.91,0007.48,0006.60
2022-02-08 00:06:00,,0829.2,5.00,0.00,28.5,27.9,00.0,37.5,30.3,06.8,0000.0,0015.72,0007.26,0006.43
2022-02-08 00:07:00,,0829.2,5.01,0.00,28.5,27.9,00.0,37.5,30.3,07.1,0000.0,0015.68,0007.13,0006.30
2022-02-08 00:08:00,,0829.2,4.99,0.00,28.5,27.9,00.0,37.5,30.3,07.0,0000.0,0015.57,0006.99,0006.18
2022-02-08 00:09:00,,0829.2,5.01,0.00,28.5,27.9,00.0,37.5,30.3,06.8,0000.0,0015.65,0006.79,0006.02
2022-02-08 00:10:00,,0829.2,4.98,0.00,28.5,27.9,00.0,37.5,30.3,07.0,0000.0,0016.25,0006.69,0005.90
2022-02-08 00:11:00,,0829.2,4.99,0.00,28.5,27.8,00.0,37.5,30.3,07.0,0000.0,0015.55,0006.63,0005.85
2022-02-08 00:12:00,,0829.2,5.01,0.00,28.5,27.8,00.0,37.5,30.3,06.7,0000.0,0016.10,0006.60,0005.79
2022-02-08 00:13:00,,0829.2,4.99,0.00,28.5,27.8,00.0,37.5,30.3,06.5,0000.0,0015.75,0006.45,0005.67
2022-02-08 00:14:00,,0829.2,5.02,0.00,28.5,27.8,00.0,37.5,30.3,06.1,0000.0,0014.55,0006.23,0005.52
2022-02-08 00:15:00,,0829.2,4.98,0.00,28.5,27.8,00.0,37.5,30.3,05.9,0000.0,0013.86,0006.00,0005.31
2022-02-08 00:16:00,,0829.2,5.01,0.00,28.5,27.8,00.0,37.5,30.3,05.6,0000.0,0013.23,0005.75,0005.08
2022-02-08 00:17:00,,0829.2,4.99,0.00,28.5,27.8,00.0,37.5,30.3,05.6,0000.0,0012.29,0005.53,0004.90
2022-02-08 00:18:00,,0829.2,5.00,0.00,28.5,27.8,00.0,37.5,30.3,06.0,0000.0,0012.14,0005.39,0004.78
2022-02-08 00:19:00,,0829.1,5.02,0.00,28.5,27.8,00.0,37.5,30.3,05.8,0000.0,0011.97,0005.17,0004.61
2022-02-08 00:20:00,,0829.1,4.99,0.00,28.5,27.8,00.0,37.5,30.2,05.7,0000.0,0011.71,0004.99,0004.44
2022-02-08 00:21:00,,0829.1,4.99,0.00,28.5,27.8,00.0,37.5,30.3,05.4,0000.0,0010.79,0004.74,0004.24
2022-02-08 00:22:00,,0829.1,5.02,0.00,28.5,27.8,00.0,37.4,30.3,05.5,0000.0,0010.09,0004.47,0004.01
2022-02-08 00:23:00,,0829.1,5.00,0.00,28.5,27.8,00.0,37.4,30.2,05.3,0000.0,0008.97,0004.18,0003.78
2022-02-08 00:24:00,,0829.1,5.00,0.00,28.5,27.8,00.0,37.4,30.3,05.3,0000.0,0008.17,0003.90,0003.57
2022-02-08 00:25:00,,0829.1,5.01,0.00,28.5,27.7,00.0,37.4,30.2,05.3,0000.0,0007.85,0003.68,0003.38
2022-02-08 00:26:00,,0829.1,4.98,0.00,28.5,27.7,00.0,37.4,30.2,05.3,0000.0,0007.76,0003.58,0003.28
2022-02-08 00:27:00,,0829.1,5.01,0.00,28.5,27.7,00.0,37.4,30.2,05.3,0000.0,0007.65,0003.49,0003.21
2022-02-08 00:28:00,,0829.1,4.99,0.00,28.5,27.7,00.0,37.4,30.2,05.3,0000.0,0007.67,0003.44,0003.15
2022-02-08 00:29:00,,0829.1,5.01,0.00,28.5,27.7,00.0,37.4,30.2,04.9,0000.0,0006.89,0003.29,0002.93
2022-02-08 00:30:00,,0829.1,4.99,0.00,28.4,27.7,00.0,37.4,30.2,04.8,0000.0,0006.02,0003.06,0002.59
2022-02-08 00:31:00,,0829.1,5.00,0.00,28.4,27.7,00.0,37.4,30.2,04.9,0000.0,0005.47,0002.76,0002.32
2022-02-08 00:32:00,,0829.1,5.00,0.00,28.4,27.7,00.0,37.4,30.2,04.8,0000.0,0004.40,0002.53,0002.13
2022-02-08 00:33:00,,0829.1,4.99,0.00,28.4,27.7,00.0,37.4,30.2,04.8,0000.0,0004.10,0002.33,0001.93
2022-02-08 00:34:00,,0829.1,5.01,0.00,28.4,27.7,00.0,37.4,30.2,04.8,0000.0,0003.61,0002.10,0001.76
2022-02-08 00:35:00,,0829.0,5.00,0.00,28.4,27.7,00.0,37.4,30.2,04.8,0000.0,0003.40,0001.95,0001.63
2022-02-08 00:36:00,,0829.0,4.98,0.00,28.4,27.7,00.0,37.4,30.1,04.7,0000.0,0003.18,0001.77,0001.47
2022-02-08 00:37:00,,0829.0,5.00,0.00,28.4,27.6,00.0,37.4,30.1,04.8,0000.0,0002.93,0001.59,0001.32
2022-02-08 00:38:00,,0829.0,5.00,0.00,28.4,27.6,00.0,37.4,30.1,04.8,0000.0,0002.53,0001.43,0001.19
2022-02-08 00:39:00,,0828.9,4.99,0.00,28.4,27.6,00.0,37.4,30.1,04.9,0000.0,0002.27,0001.29,0001.08
2022-02-08 00:40:00,,0828.7,5.01,0.00,28.3,27.6,00.0,37.4,30.0,04.9,0000.0,0001.71,0001.21,0001.02
2022-02-08 00:41:00,,0828.7,4.99,0.00,28.3,27.5,00.0,37.4,30.0,04.9,0000.0,0001.66,0001.19,0001.01
2022-02-08 00:42:00,,0828.8,5.01,0.00,28.3,27.4,00.0,37.4,29.9,04.8,0000.0,0001.67,0001.18,0001.00
2022-02-08 00:43:00,,0828.7,4.99,0.00,28.2,27.4,00.0,37.3,29.9,04.9,0000.0,0001.66,0001.17,0000.99
2022-02-08 00:44:00,,0828.8,4.99,0.00,28.2,27.3,00.0,37.3,29.9,05.5,0000.0,0001.77,0001.22,0001.06
2022-02-08 00:45:00,,0828.7,5.02,0.00,28.2,27.3,00.0,37.3,29.8,05.4,0000.0,0002.23,0001.33,0001.13
2022-02-08 00:46:00,,0828.8,4.98,0.00,28.1,27.2,00.0,37.3,29.8,05.1,0000.0,0002.33,0001.33,0001.11
2022-02-08 00:47:00,,0828.6,5.01,0.00,28.1,27.2,00.0,37.3,29.7,05.0,0000.0,0002.32,0001.33,0001.11
2022-02-08 00:48:00,,0828.8,4.98,0.00,28.0,27.1,00.0,37.2,29.7,05.1,0000.0,0002.42,0001.33,0001.09
2022-02-08 00:49:00,,0828.7,5.01,0.00,28.0,27.0,00.0,37.2,29.6,05.0,0000.0,0002.54,0001.32,0001.07
2022-02-08 00:50:00,,0828.8,5.00,0.00,27.9,27.0,00.0,37.2,29.6,05.1,0000.0,0002.44,0001.27,0001.04
2022-02-08 00:51:00,,0828.7,5.00,0.00,27.9,26.9,00.0,37.1,29.5,05.0,0000.0,0002.37,0001.22,0001.00
2022-02-08 00:52:00,,0828.7,5.01,0.00,27.9,26.9,00.0,37.1,29.5,05.1,0000.0,0002.41,0001.24,0001.00
2022-02-08 00:53:00,,0828.7,4.99,0.00,27.9,27.0,00.0,37.1,29.5,05.2,0000.0,0002.45,0001.27,0001.00
2022-02-08 00:54:00,,0828.7,5.02,0.00,27.9,27.0,00.0,37.1,29.6,05.2,0000.0,0002.51,0001.29,0001.00
2022-02-08 00:55:00,,0828.6,5.00,0.00,27.9,27.0,00.0,37.0,29.5,05.2,0000.0,0002.29,0001.18,0000.91
2022-02-08 00:56:00,,0828.7,4.99,0.00,27.8,27.0,00.0,37.0,29.5,05.1,0000.0,0001.74,0001.02,0000.79
2022-02-08 00:57:00,,0828.6,5.02,0.00,27.8,26.9,00.0,37.0,29.4,05.2,0000.0,0001.62,0000.98,0000.78
2022-02-08 00:58:00,,0828.7,4.99,0.00,27.8,26.9,00.0,37.0,29.4,05.4,0000.0,0001.67,0001.00,0000.80
2022-02-08 00:59:00,,0828.6,5.01,0.00,27.8,26.9,00.0,37.0,29.4,05.5,0000.0,0001.57,0001.05,0000.85
